FENGYUN 1C DEB

Satellite information

Favourite Embed

Satellite Type and Status

DEBRISIN ORBIT

Key statistics

Satellite FENGYUN 1C DEB at a glance.

Uptime

9493

Days in orbit

Revolutions

≈ 13.9

Per day

Orbit

SSO

Sun Synchronous Orbit

Inclination

99.3

Latest

Satellite identification and parameters

Extended collection of information and parameters for FENGYUN 1C DEB.

Object identification

Identified? True

Debris? True

Object name: FENGYUN 1C DEB

International designator: 1999-025AJN

Object number (NORAD): 30524

Object ID (CCSDS): 30524

Country: PEOPLES REPUBLIC OF CHINA (PRC)

Current information (Y/N): Y

RCS size: SMALL

Orbital parameters

Period: 103.654 minutes

Inclination: 99.3013 deg

SMA: 7309.422 km

Apoapsis: 1087.092 km

Periapsis: 775.483 km

RAAN: 294.3958 deg

Eccentricy: 0.0213156

Argument of periapsis: 134.2338 deg

Mean anomaly: 227.6542 deg

Mean motion: 13.89242839 rev/day

Mean motion (dot): 0.00013552 rev/day2

B* drag term: 0.0092975 1/REarth

Two-line elements (TLE)

Creation date: May 4, 2025, 7:06 a.m.

Reference frame: TEME

Reference center: EARTH

Epoch: May 2, 2025, 5:33 p.m. UTC

TLE line 0: 0 FENGYUN 1C DEB

TLE line 1: 1 30524U 99025AJN 25122.73140439 .00013552 00000-0 92975-2 0 9992

TLE line 2: 2 30524 99.3013 294.3958 0213156 134.2338 227.6542 13.89242839911090

Live tracking on map

Real-time ground track for satellite FENGYUN 1C DEB.

In-orbit conjunctions

A list of the most updated potential collisions computed for object FENGYUN 1C DEB.

Target Orbit TCA Probability of collision Miss distance Type
COSMOS 1867 COOLANT LEO 2025-01-07 04:03:15 0.0001393245 115.0 (m) DEBRIS
CZ-6A DEB SSO 2024-08-18 12:43:29 0.0003591 41.0 (m) DEBRIS

Associated space launch

Chinese polar orbiting meteorological satellite

FENGYUN 1C DEB was lifted into orbit during the mission ‘Long March 4B | Feng Yun 1C’, on board a Long March 4B space rocket.

The launch took place on May 10, 1999, 1:33 a.m. from Launch Complex 7.

For more information about the launch, click the button.

Launch to space Long March 4B | Feng Yun 1C
Long March 4B | Feng Yun 1C

Agency: N/A

Status: Launch Successful

Launch date: May 10, 1999, 1:33 a.m. UTC

Rocket: Long March 4B

Launch pad: Launch Complex 7

Location: Taiyuan Satellite Launch Center, People's Republic of China

...

Latest news about this satellite

There are no fresh news available about this satellite. Check back as we update our databases every day.


Newsletter sign-up

Weekly statistics, charts and insights to help you stay on top of the space industry.